This demonstration page uses our WeatherBlox Daily Observations layout. Learn more.

Left ArrowRight Arrow

Hourly Observations for October 20, 2015

Temp ( °F °C ) Dew Point ( °F °C ) Humidity (%) Winds ( mph kmh ) Pressure ( in mb ) Visibility ( mi km ) Precip ( " mm )
12:53 am 00:53 Clear 41 5 32 0 70 70 Calm 30.27 1025 10 16 0.00 0.00
1:53 am 01:53 Clear 40 4.4 36 2.2 86 86 Calm 30.27 1025 10 16 0.00 0.00
2:53 am 02:53 Clear 38 3.3 35 1.7 89 89 Calm 30.28 1025 10 16 0.00 0.00
3:53 am 03:53 Clear 41 5 37 2.8 86 86 ESE 5 7 30.28 1025 10 16 0.00 0.00
4:53 am 04:53 Clear 39 3.9 36 2.2 89 89 ESE 3 6 30.28 1025 10 16 0.00 0.00
5:53 am 05:53 Clear 40 4.4 37 2.8 89 89 ESE 5 7 30.29 1026 10 16 0.00 0.00
6:53 am 06:53 Clear 39 3.9 36 2.2 89 89 Calm 30.31 1026 10 16 0.00 0.00
7:53 am 07:53 Clear 39 3.9 36 2.2 89 89 E 3 6 30.32 1027 10 16 0.00 0.00
8:53 am 08:53 Sunny 45 7.2 40 4.4 83 83 Calm 30.34 1027 10 16 0.00 0.00
9:53 am 09:53 Sunny 56 13.3 40 4.4 55 55 WSW 6 9 30.34 1027 10 16 0.00 0.00
10:53 am 10:53 Sunny 62 16.7 40 4.4 44 44 VRB 6 9 30.34 1028 10 16 0.00 0.00
11:53 am 11:53 Sunny 64 17.8 39 3.9 40 40 WSW 8 13 30.33 1027 10 16 0.00 0.00
12:53 pm 12:53 Sunny 68 20 39 3.9 35 35 SW 9 15 30.32 1027 10 16 0.00 0.00
1:53 pm 13:53 Sunny 71 21.7 39 3.9 31 31 VRB 7 11 30.28 1026 10 16 0.00 0.00
2:53 pm 14:53 Sunny 72 22.2 37 2.8 28 28 S 8 13 30.26 1025 10 16 0.00 0.00
3:53 pm 15:53 Sunny 73 22.8 37 2.8 27 27 VRB 7 11 30.24 1024 10 16 0.00 0.00
4:53 pm 16:53 Sunny 72 22.2 36 2.2 27 27 VRB 6 9 30.23 1024 10 16 0.00 0.00
5:53 pm 17:53 Sunny 70 21.1 37 2.8 30 30 S 8 13 30.23 1024 10 16 0.00 0.00
6:53 pm 18:53 Clear 66 18.9 37 2.8 34 34 S 3 6 30.23 1024 10 16 0.00 0.00
7:53 pm 19:53 Clear 55 12.8 39 3.9 55 55 SSW 3 6 30.24 1024 10 16 0.00 0.00
8:53 pm 20:53 Clear 47 8.3 39 3.9 74 74 S 3 6 30.24 1024 10 16 0.00 0.00
9:53 pm 21:53 Clear 46 7.8 39 3.9 77 77 Calm 30.24 1024 10 16 0.00 0.00
10:53 pm 22:53 Clear 45 7.2 38 3.3 77 77 Calm 30.25 1024 10 16 0.00 0.00
11:53 pm 23:53 Clear 43 6.1 38 3.3 82 82 Calm 30.27 1025 10 16 0.00 0.00

Powered by AerisWeather